TUI5LM LDSP-EDDL

Flight info

Callsign TUI5LM
Flight time N/A
Altitude 34000
Route ZDA DCT PEVAL DCT MOBDO DCT SOTOV DCT KPT L608 TEDGO/N0441F350 DCT HAREM DCT LOHRE/N0440F340 Z850 ADEMI T854 DOMUX DOMUX23
Aircraft B738/M-SDE2E3FGHIRWXY/LB1

Departure

Time 2026-05-04 15:02
Airport Split Saint Jerome Airport (LDSP)

Arrival

Time N/A
Airport Düsseldorf Airport (EDDL)
Time Latitude Longitude Altitude Speed Heading
2026-05-04 14:40 43.53762 16.29933 59 ft 0 kts 112°
2026-05-04 14:54 43.53762 16.29935 59 ft 1 kts 102°
2026-05-04 14:55 43.53775 16.29952 59 ft 4 kts 31°
2026-05-04 14:55 43.53810 16.29980 60 ft 8 kts 26°
2026-05-04 14:55 43.53875 16.30029 61 ft 12 kts 31°
2026-05-04 14:55 43.53907 16.30054 61 ft 0 kts 27°
2026-05-04 14:59 43.53998 16.30095 62 ft 8 kts 11°
2026-05-04 15:00 43.54062 16.30120 62 ft 12 kts 30°
2026-05-04 15:00 43.54136 16.30219 62 ft 17 kts 51°
2026-05-04 15:00 43.54278 16.30503 54 ft 61 kts 54°
2026-05-04 15:01 43.54564 16.31047 57 ft 6 kts 335°
2026-05-04 15:01 43.54556 16.30990 55 ft 9 kts 244°
2026-05-04 15:01 43.54424 16.30747 52 ft 63 kts 231°
2026-05-04 15:01 43.54035 16.30053 64 ft 118 kts 232°
2026-05-04 15:02 43.53432 16.28982 97 ft 161 kts 231°
2026-05-04 15:02 43.52739 16.27780 600 ft 163 kts 231°
2026-05-04 15:02 43.52027 16.26559 1152 ft 167 kts 231°
2026-05-04 15:02 43.51284 16.25321 1719 ft 168 kts 230°
2026-05-04 15:03 43.50536 16.24098 2218 ft 170 kts 229°
2026-05-04 15:03 43.49782 16.22895 2570 ft 169 kts 229°
2026-05-04 15:03 43.48965 16.21653 2730 ft 175 kts 227°